Regional Weather Roundup
Issued by NWS

Home | Current Version | Previous Version | Text Only | Print | Product List | Glossary On
Versions: 1 2 3 4 5 6 7 8 9 10 11 12 13 14 15 16 17 18 19 20 21 22 23 24 25 26 27 28 29 30 31 32 33 34 35 36 37 38 39 40 41 42 43 44 45 46 47 48 49 50
000
ASUS44 KOUN 312210
RWROK

WEATHER ROUNDUP FOR OKLAHOMA
NATIONAL WEATHER SERVICE NORMAN OK
500 PM CDT THU JUL 31 2014

NOTE: "FAIR" INDICATES FEW OR NO CLOUDS BELOW 12,000 FEET WITH NO
      SIGNIFICANT WEATHER AND/OR OBSTRUCTIONS TO VISIBILITY.

OKZ001>007-009>012-014-015-017-312300-
NORTHWEST OKLAHOMA AND THE PANHANDLE

CITY           SKY/WX    TMP DP  RH WIND       PRES   REMARKS
GAGE           MOSUNNY   81  55  40 NE10      30.12F
ENID/WOODRING  PTSUNNY   82  64  54 NE9       30.06F
$$

OKZ016-021>023-033>039-044-045-312300-
SOUTHWEST OKLAHOMA

CITY           SKY/WX    TMP DP  RH WIND       PRES   REMARKS
LAWTON/REGL    CLOUDY    79  65  62 N12       30.06S
LAWTON/FT SILL CLOUDY    78  66  64 NE14      30.05S
FREDERICK      CLOUDY    77  67  71 NE12      30.04F
CLINTON        MOSUNNY   79  61  53 NE14G20   30.11F
HOBART         PTSUNNY   80  63  55 NE14      30.09F
ALTUS AFB      PTSUNNY   79  66  63 N10       30.08F
$$

OKZ018>020-024>031-312300-
CENTRAL OKLAHOMA

CITY           SKY/WX    TMP DP  RH WIND       PRES   REMARKS
OKLAHOMA CITY  CLOUDY    77  65  66 NE13      30.07S
OKC/WILEY POST PTSUNNY   77  66  68 N12       30.07F
OKC/TINKER AFB PTSUNNY   72  68  86 E9        30.07F
STILLWATER     PTSUNNY   77  66  68 E5        30.06F
GUTHRIE        CLOUDY    76  66  71 NE12      30.07F
$$

OKZ008-013-054>072-312300-
NORTHEAST OKLAHOMA

CITY           SKY/WX    TMP DP  RH WIND       PRES   REMARKS
TULSA          PTSUNNY   75  68  78 SE7       30.04F
TULSA/JONES    CLOUDY    73  68  83 CALM      30.06F
PONCA CITY     PTSUNNY   80  63  55 VRB6      30.06F
BARTLESVILLE   PTSUNNY   81  63  54 VRB3      30.06F
MUSKOGEE       CLOUDY    74  65  73 CALM      30.06S
$$

OKZ032-040>043-046>053-073>077-312300-
SOUTH CENTRAL/SOUTHEAST OKLAHOMA

CITY           SKY/WX    TMP DP  RH WIND       PRES   REMARKS
ARDMORE/DWNTWN CLOUDY    73  64  73 E9G16     30.03F
MCALESTER      CLOUDY    71  66  84 VRB5      30.05F
$$




USA.gov is the U.S. government's official web portal to all federal, state and local government web resources and services.